Powrót do katalogu

STARLINK-37376

AktywnyŁącznośćVLEO
NORAD 69378·PAYLOAD·🇺🇸 United States

Wystrzelony Jun 4, 2026 z Cape Canaveral Space Force Station

Loading…

Następne Przeloty (najbliższe 24 godziny)

TLE

ŚwieżeSource: CelesTrak SupGP

Epoka: Sep 14, 2026, 23:12 UTC

1 69378C 26123AB  26257.96715278 -.00093991  00000+0 -27762-2 0  2579
2 69378  53.1583 167.9173 0001298  88.9329 353.3082 15.34445811    14

Śledź STARLINK-37376 w czasie rzeczywistym z AllMySat

Download on the App Store